Hourly Weather Lugovoe

Today, 7 May, Friday

Time Temperature Precipitation Wind Pressure Humidity
00:00 +5°C° 0 mm 3 mps 749 mmHg 88%
01:00 +5°C° 0 mm 2 mps 750 mmHg 90%
02:00 +4°C° 0 mm 3 mps 750 mmHg 89%
03:00 +4°C° 0 mm 3 mps 750 mmHg 88%
04:00 +4°C° 0 mm 3 mps 750 mmHg 87%
05:00 +6°C° 0 mm 2 mps 750 mmHg 84%
06:00 +7°C° 0 mm 2 mps 750 mmHg 80%
07:00 +8°C° 0 mm 2 mps 750 mmHg 77%
08:00 +10°C° 0 mm 3 mps 750 mmHg 71%
09:00 +12°C° 0 mm 3 mps 750 mmHg 65%
10:00 +14°C° 0 mm 3 mps 750 mmHg 59%
11:00 +15°C° 0 mm 4 mps 749 mmHg 55%
12:00 +16°C° 0 mm 5 mps 749 mmHg 52%
13:00 +17°C° 0 mm 6 mps 749 mmHg 48%
14:00 +16°C° 0 mm 6 mps 749 mmHg 46%
15:00 +16°C° 0 mm 6 mps 749 mmHg 45%
16:00 +16°C° 0 mm 6 mps 749 mmHg 42%
17:00 +15°C° 0 mm 5 mps 749 mmHg 46%
18:00 +13°C° 0 mm 4 mps 748 mmHg 50%
19:00 +13°C° 0 mm 2 mps 748 mmHg 55%
20:00 +10°C° 0 mm 2 mps 748 mmHg 58%
21:00 +9°C° 0 mm 2 mps 749 mmHg 61%
22:00 +7°C° 0 mm 2 mps 749 mmHg 64%
23:00 +7°C° 0 mm 2 mps 748 mmHg 66%

Tomorrow, 8 May, Saturday

Time Temperature Precipitation Wind Pressure Humidity
00:00 +8°C° 0 mm 1 mps 748 mmHg 67%
01:00 +8°C° 0 mm 1 mps 748 mmHg 69%
02:00 +8°C° 0 mm 1 mps 747 mmHg 68%
03:00 +9°C° 0 mm 1 mps 747 mmHg 67%
04:00 +9°C° 0 mm 1 mps 746 mmHg 66%
05:00 +9°C° 0 mm 1 mps 746 mmHg 66%
06:00 +10°C° 0 mm 1 mps 745 mmHg 65%
07:00 +10°C° 0 mm 1 mps 745 mmHg 65%
08:00 +10°C° 0.6 mm 1 mps 745 mmHg 71%
09:00 +10°C° 0.6 mm 1 mps 745 mmHg 77%
10:00 +10°C° 0.6 mm 2 mps 745 mmHg 82%
11:00 +10°C° 1.1 mm 2 mps 745 mmHg 84%
12:00 +10°C° 1.1 mm 2 mps 745 mmHg 86%
13:00 +11°C° 1.1 mm 1 mps 745 mmHg 88%
14:00 +10°C° 0.1 mm 2 mps 745 mmHg 84%
15:00 +10°C° 0.1 mm 2 mps 745 mmHg 80%
16:00 +12°C° 0.1 mm 2 mps 745 mmHg 76%
17:00 +9°C° 0.2 mm 2 mps 745 mmHg 81%
18:00 +8°C° 0.2 mm 2 mps 746 mmHg 87%
19:00 +8°C° 0.2 mm 1 mps 747 mmHg 93%
20:00 +7°C° 0 mm 1 mps 747 mmHg 93%
21:00 +7°C° 0 mm 1 mps 747 mmHg 94%
22:00 +6°C° 0 mm 0 mps 748 mmHg 94%
23:00 +6°C° 0 mm 0 mps 748 mmHg 94%

Day after tomorrow, 9 May, Sunday

Time Temperature Precipitation Wind Pressure Humidity
00:00 +6°C° 0 mm 0 mps 748 mmHg 95%
01:00 +7°C° 0 mm 1 mps 748 mmHg 95%
02:00 +6°C° 0 mm 1 mps 748 mmHg 95%
03:00 +6°C° 0 mm 1 mps 748 mmHg 96%
04:00 +5°C° 0 mm 1 mps 748 mmHg 96%
05:00 +6°C° 0 mm 1 mps 749 mmHg 94%
06:00 +6°C° 0 mm 1 mps 749 mmHg 92%
07:00 +7°C° 0 mm 1 mps 749 mmHg 90%
08:00 +8°C° 0 mm 1 mps 749 mmHg 85%
09:00 +8°C° 0 mm 2 mps 749 mmHg 80%
10:00 +9°C° 0 mm 2 mps 748 mmHg 75%
11:00 +9°C° 0 mm 3 mps 748 mmHg 73%
12:00 +9°C° 0 mm 3 mps 748 mmHg 71%
13:00 +8°C° 0 mm 4 mps 747 mmHg 68%
14:00 +8°C° 0 mm 4 mps 747 mmHg 69%
15:00 +7°C° 0 mm 4 mps 747 mmHg 70%
16:00 +7°C° 0 mm 4 mps 747 mmHg 71%
17:00 +5°C° 0 mm 4 mps 747 mmHg 76%
18:00 +4°C° 0 mm 4 mps 747 mmHg 81%
19:00 +1°C° 0 mm 4 mps 747 mmHg 86%
20:00 +1°C° 0.1 mm 4 mps 746 mmHg 89%
21:00 0°C° 0.1 mm 4 mps 746 mmHg 91%
22:00 0°C° 0.1 mm 4 mps 746 mmHg 94%
23:00 -1°C° 0.4 mm 4 mps 746 mmHg 94%

10 May, Monday

Time Temperature Precipitation Wind Pressure Humidity
00:00 -1°C° 0.4 mm 4 mps 745 mmHg 94%
01:00 -1°C° 0.4 mm 4 mps 745 mmHg 95%
02:00 -1°C° 0.7 mm 4 mps 745 mmHg 95%
03:00 -1°C° 0.7 mm 5 mps 744 mmHg 95%
04:00 -1°C° 0.7 mm 5 mps 744 mmHg 95%
05:00 -1°C° 0.4 mm 5 mps 744 mmHg 94%
06:00 -1°C° 0.4 mm 5 mps 744 mmHg 94%
07:00 -1°C° 0.4 mm 5 mps 744 mmHg 94%
08:00 0°C° 0.6 mm 5 mps 744 mmHg 94%
09:00 0°C° 0.6 mm 5 mps 744 mmHg 94%
10:00 0°C° 0.6 mm 4 mps 744 mmHg 94%
11:00 0°C° 0.8 mm 4 mps 744 mmHg 94%
12:00 +1°C° 0.8 mm 5 mps 744 mmHg 95%
13:00 +1°C° 0.8 mm 5 mps 745 mmHg 95%
14:00 +1°C° 0.5 mm 5 mps 745 mmHg 95%
15:00 0°C° 0.5 mm 5 mps 745 mmHg 96%
16:00 -1°C° 0.5 mm 6 mps 745 mmHg 96%
17:00 -1°C° 0.1 mm 6 mps 746 mmHg 96%
18:00 -1°C° 0.1 mm 6 mps 747 mmHg 96%
19:00 -1°C° 0.1 mm 6 mps 748 mmHg 96%
20:00 0°C° 0 mm 5 mps 749 mmHg 96%
21:00 0°C° 0 mm 5 mps 750 mmHg 97%
22:00 0°C° 0 mm 4 mps 751 mmHg 97%
23:00 0°C° 0.2 mm 4 mps 751 mmHg 97%

11 May, Tuesday

Time Temperature Precipitation Wind Pressure Humidity
00:00 0°C° 0.2 mm 4 mps 752 mmHg 96%
01:00 0°C° 0.2 mm 4 mps 752 mmHg 96%
02:00 0°C° 0.3 mm 4 mps 753 mmHg 97%
03:00 0°C° 0.3 mm 4 mps 753 mmHg 97%
04:00 0°C° 0.3 mm 4 mps 753 mmHg 97%
05:00 0°C° 0.2 mm 4 mps 754 mmHg 97%
06:00 0°C° 0.2 mm 4 mps 755 mmHg 97%
07:00 0°C° 0.2 mm 4 mps 756 mmHg 97%
08:00 0°C° 0.3 mm 4 mps 756 mmHg 96%
09:00 0°C° 0.3 mm 4 mps 756 mmHg 94%
10:00 0°C° 0.3 mm 4 mps 757 mmHg 93%
11:00 +1°C° 0.1 mm 4 mps 757 mmHg 90%
12:00 +3°C° 0.1 mm 4 mps 757 mmHg 86%
13:00 +3°C° 0.1 mm 4 mps 758 mmHg 82%
14:00 +4°C° 0 mm 4 mps 758 mmHg 79%
15:00 +4°C° 0 mm 3 mps 758 mmHg 76%
16:00 +5°C° 0 mm 3 mps 758 mmHg 73%
17:00 +4°C° 0 mm 3 mps 758 mmHg 76%
18:00 +4°C° 0 mm 2 mps 759 mmHg 79%
19:00 +3°C° 0 mm 2 mps 759 mmHg 81%
20:00 +2°C° 0 mm 2 mps 759 mmHg 83%
21:00 +1°C° 0 mm 1 mps 760 mmHg 85%
22:00 0°C° 0 mm 1 mps 760 mmHg 87%
23:00 0°C° 0 mm 1 mps 760 mmHg 85%

12 May, Wednesday

Time Temperature Precipitation Wind Pressure Humidity
00:00 -1°C° 0 mm 1 mps 761 mmHg 84%
01:00 -1°C° 0 mm 1 mps 761 mmHg 82%
02:00 -1°C° 0 mm 1 mps 761 mmHg 81%
03:00 -2°C° 0 mm 0 mps 761 mmHg 80%
04:00 -1°C° 0 mm 0 mps 761 mmHg 78%
05:00 0°C° 0 mm 0 mps 761 mmHg 75%
06:00 +3°C° 0 mm 1 mps 761 mmHg 72%
07:00 +4°C° 0 mm 1 mps 761 mmHg 69%
08:00 +6°C° 0 mm 1 mps 761 mmHg 67%
09:00 +7°C° 0 mm 1 mps 761 mmHg 65%
10:00 +9°C° 0 mm 1 mps 761 mmHg 62%
11:00 +8°C° 0 mm 2 mps 761 mmHg 64%
12:00 +9°C° 0 mm 2 mps 761 mmHg 65%
13:00 +9°C° 0 mm 2 mps 760 mmHg 66%
14:00 +9°C° 0 mm 2 mps 760 mmHg 68%
15:00 +9°C° 0 mm 2 mps 760 mmHg 70%
16:00 +8°C° 0 mm 2 mps 760 mmHg 72%
17:00 +7°C° 0 mm 2 mps 760 mmHg 76%
18:00 +6°C° 0 mm 2 mps 760 mmHg 80%
19:00 +5°C° 0 mm 2 mps 760 mmHg 84%
20:00 +4°C° 0 mm 2 mps 760 mmHg 87%
21:00 +2°C° 0 mm 2 mps 761 mmHg 90%
22:00 +1°C° 0 mm 2 mps 761 mmHg 93%
23:00 +1°C° 0 mm 2 mps 761 mmHg 93%
Show more

We Need Your Consent

Meteoprog and our Service Providers may store and access personal data such as cookies, device identifiers or other similar technologies on your device and process such data to personalise content and ads, as well as provide social media features and to analyse the traffic.

  • Store and/or access information on your device

    Cookies, device identifiers or other information can be stored or accessed on your device for the purposes indicated above.

  • Personalised ads and content, ad and content measurement, audience insights, and products development

    Ads and content can be personalised based on a profile. More data can be added to better personalise ads and content. Ad and content performance can be measured. Insights about the audience who saw the ads and content can be derived. Such data can be used to develop or improve user’s experience, systems and software.

By clicking ‘I Agree’ you will allow the use of indicated cookies, device identifiers, web beacons or other similar technologies. Your settings can be changed in the browser on your device.

For certain purposes, legitimate interests may be relied on, rather than consent. You can read more about this in our Privacy and Cookie Policy.